Regional Weather Roundup
Issued by NWS San Diego, CA

Home | Current Version | Previous Version | Text Only | Print | Product List | Glossary On
Versions: 1 2 3 4 5 6 7 8 9 10 11 12 13 14 15 16 17 18 19 20 21 22 23 24 25 26 27 28 29 30 31 32 33 34 35 36 37 38 39 40 41 42 43 44 45 46 47 48 49 50
000
ASUS46 KSGX 291211
RWRSGX

SAN DIEGO HOURLY WEATHER ROUNDUP
NATIONAL WEATHER SERVICE SAN DIEGO CA
500 AM PDT WED MAR 29 2017

NOTE: "FAIR" INDICATES FEW OR NO CLOUDS BELOW 12,000 FEET WITH NO
SIGNIFICANT WEATHER AND/OR OBSTRUCTIONS TO VISIBILITY.

CAZ042-043-060-061-PZZ750-775-291300-

GREATER SAN DIEGO AREA

CITY           SKY/WX    TMP DP  RH WIND       PRES   REMARKS
SAN DIEGO AP   CLEAR     57  45  64 NE3       30.00F
NATIONAL CITY    N/A     53  46  78 CALM      29.99F
CHULA VISTA      N/A     50  46  84 E2        29.91F
IMPERIAL BEACH CLEAR     54  44  69 E8        29.99S
BROWN FIELD    CLEAR     47  41  80 SE8       29.99S
MIRAMAR MCAS   CLEAR     50  41  71 E6        29.98F
MONTGOMERY FLD CLEAR     52  41  66 CALM      29.99F

$$

NORTH SAN DIEGO COUNTY

CITY           SKY/WX    TMP DP  RH WIND       PRES   REMARKS
CAMP PENDLETON CLEAR     44  41  89 NE3       29.99F
OCEANSIDE AP   NOT AVBL
OCEANSIDE HBR    N/A     50  43  77 E8        30.02S
VISTA            N/A     49  42  79 CALM      29.96F
CARLSBAD       CLEAR     53  44  71 SE3       29.98S
DEL MAR          N/A     55  44  66 CALM      30.01F
LA JOLLA SCRIP   N/A     58  49  73 NE2       29.98F
FALLBROOK        N/A     53  42  65 CALM      29.98S
ESCONDIDO        N/A     50  44  78 CALM      30.01S
SAN MARCOS       N/A     53  43  69 E3        29.99F
POWAY            N/A     45  40  84 CALM      30.02S

$$

EAST SAN DIEGO COUNTY

CITY           SKY/WX    TMP DP  RH WIND       PRES   REMARKS
RAMONA         CLEAR     39  38  96 VRB5      30.01S
SANTEE LAKES     N/A     45  41  86 CALM      30.00S
LA MESA          N/A     56  40  55 CALM      29.92F
JAMUL            N/A     46  39  75 CALM      30.01S
DESCANSO N       N/A     49  25  39 NE3       29.98F
CAMPO            N/A     37  26  64 VRB3      30.01R

$$

ORANGE COUNTY AND THE LOS ANGELES BASIN

CITY           SKY/WX    TMP DP  RH WIND       PRES   REMARKS
JOHN WAYNE AP  CLEAR     54  45  71 CALM      29.99S
LAKE FOREST FR   N/A     55  29  37 CALM      29.87F
HUNTINGTON BCH   N/A     50  49  95 CALM      30.00F
LOS ALAMITOS   FAIR      49  46  88 NE3       29.99S
FULLERTON      CLEAR     54  43  66 E3        29.99S
LONG BEACH     CLEAR     54  49  83 W5        29.99F
L.A. AP        CLEAR     57  53  86 SE6       29.99F
L.A. DOWNTOWN  CLEAR     58  47  66 CALM      29.99F

$$

THE INLAND EMPIRE

CITY           SKY/WX    TMP DP  RH WIND       PRES   REMARKS
CORONA         CLEAR     44  38  79 CALM      30.00F
CHINO          CLEAR     50  40  68 CALM      30.01S
ONTARIO        CLEAR     57  31  37 CALM      30.00S
SAN BERNARDINO FAIR      55  28  34 CALM      30.02S
RIVERSIDE AP   CLEAR     58  33  39 VRB7      30.00S
MORENO VALLEY    N/A     52  37  56 CALM      28.15S
MARCH ARB      CLEAR     40  38  91 CALM      30.02S
HORSETHIEF CYN   N/A     50  26  38 CALM      30.02S
PERRIS           N/A     47  40  75 CALM      30.05S
HEMET EAST       N/A     53  22  29 CALM      30.06F
FRENCH VALLEY  FAIR      45  37  76 N5        30.03S
TEMECULA         N/A     48  42  80 CALM      30.10S

$$

SAN BERNARDINO AND RIVERSIDE COUNTY MOUNTAINS

CITY           SKY/WX    TMP DP  RH WIND       PRES   REMARKS
BIG BEAR AP    CLEAR     32  19  59 CALM      30.22R
ANGELUS OAKS     N/A     45  21  38 CALM      30.01R
PINE COVE        N/A     47  16  28 CALM      30.06F

$$

SOUTHERN DESERT INCLUDING THE COACHELLA VALLEY

CITY           SKY/WX    TMP DP  RH WIND       PRES   REMARKS
PALM SPRINGS   CLEAR     68  24  19 SW6       30.01S
PALM DESERT      N/A     73  25  17 NW3       29.88S
THERMAL        CLEAR     66  24  20 NW6       29.95R
BLYTHE         CLEAR     66  26  22 NW8       29.99R
IMPERIAL AP    CLEAR     55  27  34 NE3       29.97R
EL CENTRO NAS  CLEAR     53  22  29 W8        29.99R
YUMA AZ        CLEAR     65  24  21 N9        29.96

$$

UPPER DESERT

CITY           SKY/WX    TMP DP  RH WIND       PRES   REMARKS
VICTORVILLE AP CLEAR     37  25  60 CALM      30.13R
HESPERIA         N/A     42  25  50 W3        30.27R
PALMDALE       CLEAR     40  33  76 S7        30.13S
LANCASTER      CLEAR     34  29  82 CALM      30.14R
EDWARDS AFB    CLEAR     38  32  77 CALM      30.11S
DAGGETT        CLEAR     48  27  44 W14       30.10S
29 PALMS N     CLEAR     59  18  20 NW7       30.14S
NEEDLES        CLEAR     65  24  21 N12       30.03S

$$

REGIONAL REPORTS

CITY           SKY/WX    TMP DP  RH WIND       PRES   REMARKS
SANTA BARBARA  CLEAR     50  41  71 NE3       30.00F
SANDBERG       CLEAR     51  26  37 N8        30.16S
LAS VEGAS NV   PTCLDY    56  26  31 E8        30.10F
PHOENIX AZ     PTCLDY    59  30  33 SW3       29.92R
TIJUANA        CLEAR     52  41  66 CALM      30.01F
ENSENADA NW      N/A     57  32  39 N2        29.96S

$$

OFFSHORE ISLANDS

CITY           SKY/WX    TMP DP  RH WIND       PRES   REMARKS
CATALINA ARPT  CLEAR     64  27  24 NE8       30.03S
SAN NICOLAS IS CLEAR    N/A N/A N/A NW12      30.01S

$$

MARINE AND OFFSHORE BUOY REPORTS

STATION/POSITION SKY/WX   TEMP    WIND        PRES    VSBY  SWELL
                          AIR SEA DIR/SP/G                  HT/PER/DIR
                          (F)     (DEG/KT/KT) (MB)    (MI)  (FT/S/D)
TANNER BANKS               58 58  330/ 10/ 12 1015.6S        11/330/17
S CLEMENTE BASIN           59 60  310/  4/  6 1015.3S         8/290/17
SAN NICOLAS IS.               57                N/A           8/300/13
SO. S. ROSA ISLA           56 55  310/ 17/ 19 1015.8F        11/290/17
W. S. BARBARA CH           57 54  330/ 10/ 14 1016.4F        10/290/16
M. S. BARBARA CH                                N/A           7/270/17
S. MONICA BASIN            61 60  340/  8/ 10 1015.5F         5/270/17
S PEDRO CHANNEL               59                N/A           3/270/18
OCEANSIDE OFFSHR              60                N/A           2/250/18
TORREY PINES OTR              62                N/A           3/280/18
POINT LOMA SOUTH              62                N/A           5/280/18

$$




USA.gov is the U.S. government's official web portal to all federal, state and local government web resources and services.